This demonstration page uses our WeatherBlox Daily Observations layout. Learn more.

36.19886, -115.1175

Hourly Observations for July 7, 2019

Temp ( °F °C ) Dew Point ( °F °C ) Humidity (%) Winds ( mph kmh ) Pressure ( in mb ) Visibility ( mi km ) Precip ( " mm )
12:53 am 00:53 Clear 88 31.1 28 -2.2 11 11 S 7 11 29.83 1010 10 16.09344 0 0
1:53 am 01:53 Clear 86 30 30 -1.1 13 13 SSW 5 7 29.83 1010 10 16.09344 0 0
2:53 am 02:53 Clear 82 27.8 32 0 16 16 Calm 29.83 1010 10 16.09344 0 0
3:53 am 03:53 Clear 78 25.6 34 1.1 20 20 Calm 29.8 1009 10 16.09344 0 0
4:53 am 04:53 Clear 78 25.6 34 1.1 20 20 Calm 29.8 1009 10 16.09344 0 0
5:53 am 05:53 Sunny 77 25 35 1.7 22 22 Calm 29.83 1010 10 16.09344 0 0
6:53 am 06:53 Sunny 77 25 37 2.8 24 24 WNW 6 9 29.83 1010 10 16.09344 0 0
7:53 am 07:53 Sunny 83 28.3 35 1.7 18 18 Calm 29.83 1010 10 16.09344 0 0
8:53 am 08:53 Sunny 86 30 36 2.2 17 17 Calm 29.85 1011 10 16.09344 0 0
9:53 am 09:53 Sunny 91 32.8 35 1.7 14 14 SE 12 19 29.83 1010 10 16.09344 0 0
10:53 am 10:53 Sunny 94 34.4 34 1.1 12 12 S 14 22 29.83 1010 10 16.09344 0 0
11:53 am 11:53 Sunny 95 35 34 1.1 12 12 SW 18 30 29.83 1010 10 16.09344 0 0
12:53 pm 12:53 Sunny 96 35.6 35 1.7 12 12 S 13 20 29.8 1009 10 16.09344 0 0
1:53 pm 13:53 Sunny 97 36.1 36 2.2 12 12 VRB 5 7 29.77 1008 10 16.09344 0 0
2:39 pm 14:39 Sunny with Nearby Thunderstorms 99 37.2 34 1.1 10 10 S 16 26 29.59 1002 10 16.09344 0 0
2:53 pm 14:53 Sunny 100 37.8 33 0.6 10 10 S 16 26 29.74 1007 10 16.09344 0 0
3:13 pm 15:13 Sunny with Nearby Thunderstorms 100 37.8 32 0 9 9 S 17 28 29.59 1002 10 16.09344 0 0
3:28 pm 15:28 Sunny 98 36.7 32 0 10 10 S 15 24 29.59 1002 10 16.09344 0 0
3:53 pm 15:53 Sunny 99 37.2 32 0 9 9 SSE 13 20 29.74 1007 10 16.09344 0 0
4:15 pm 16:15 Sunny 100 37.8 32 0 9 9 SSW 17 28 29.56 1001 10 16.09344 0 0
4:53 pm 16:53 Sunny 99 37.2 30 -1.1 9 9 SSW 18 30 29.71 1006 10 16.09344 0 0
5:53 pm 17:53 Sunny 99 37.2 27 -2.8 8 8 SSW 16 26 29.71 1006 10 16.09344 0 0
6:43 pm 18:43 Sunny 97 36.1 25 -3.9 7 7 SSW 13 20 29.53 1000 10 16.09344 0 0
6:53 pm 18:53 Sunny 97 36.1 25 -3.9 7 7 SW 14 22 29.71 1006 10 16.09344 0 0
7:53 pm 19:53 Sunny 94 34.4 25 -3.9 8 8 SW 10 17 29.71 1006 10 16.09344 0 0
8:53 pm 20:53 Clear 93 33.9 26 -3.3 9 9 SSW 10 17 29.71 1006 10 16.09344 0 0
9:53 pm 21:53 Clear 91 32.8 18 -7.8 7 7 SSW 17 28 29.71 1006 10 16.09344 0 0
10:53 pm 22:53 Clear 90 32.2 25 -3.9 9 9 SSW 9 15 29.74 1007 10 16.09344 0 0
11:53 pm 23:53 Clear 88 31.1 34 1.1 15 15 SW 8 13 29.74 1007 10 16.09344 0 0

Powered by AerisWeather